CAPE
554 600 539 425 378 219 126 39 62 34 50 5 0 0 0 0 0 0 0 0 0 0 0 0 0 0 0 0 0 0 0 0 0 0 0 0 0 0 0 0 0 0
598 578 471 383 282 236 75 91 78 90 0 4 0 0 0 0 0 0 0 0 0 0 0 0 0 0 0 0 0 0 0 0 0 0 0 0 0 0 0 0 0 0
576 532 436 314 213 220 128 89 133 32 17 26 130 0 0 1 0 0 0 0 0 0 0 0 0 0 0 0 0 0 0 0 0 0 0 0 0 0 0 0 0 0
562 484 365 304 260 212 144 165 234 44 44 173 50 0 0 0 1 0 0 0 0 0 0 0 0 0 0 0 0 0 0 0 0 0 0 0 0 0 0 0 0 0
545 414 341 344 317 211 201 313 270 181 186 175 166 13 0 0 0 0 0 0 0 0 0 0 0 0 0 0 0 0 0 0 0 0 0 0 0 0 0 0 0 0
539 361 363 388 264 262 334 330 228 201 181 186 167 8 0 0 0 0 0 0 0 0 0 0 0 0 0 0 0 0 0 0 0 0 0 0 0 0 0 0 0 0
401 414 404 276 266 368 422 227 164 227 174 170 5 0 0 0 0 0 0 0 0 0 0 0 0 0 0 0 0 0 0 0 0 0 0 0 0 0 0 0 0 0
449 446 278 292 402 472 403 364 222 268 169 128 0 141 192 193 164 173 145 1 0 0 0 0 0 0 0 0 0 0 0 0 0 0 0 0 0 0 0 0 0 0
442 299 402 516 533 495 389 264 302 257 149 141 174 259 262 229 192 223 194 152 0 0 0 0 0 0 0 0 0 0 0 0 0 0 0 0 0 0 0 0 0 0
492 467 616 673 629 588 481 347 299 283 164 183 269 317 314 278 258 243 219 164 96 0 0 0 0 0 0 0 0 0 0 0 0 0 0 0 0 0 0 0 0 0
501 546 680 750 691 545 434 379 313 323 188 256 317 350 329 252 284 267 238 209 134 76 31 0 0 0 0 0 0 0 0 0 0 0 0 0 0 0 0 0 0 0
609 518 614 542 408 411 432 356 316 350 213 309 366 366 332 305 315 281 273 234 125 59 0 0 0 0 0 0 0 0 0 0 0 0 0 0 0 0 0 0 0 0
532 573 550 557 466 406 349 303 326 415 305 355 398 375 325 331 317 296 251 150 77 47 0 0 0 0 0 0 0 0 0 0 0 0 0 0 0 0 0 0 0 0
503 495 523 488 423 357 323 314 360 464 406 378 380 366 357 331 314 295 194 112 110 76 0 0 0 0 0 0 0 0 0 0 0 0 0 0 0 0 0 0 0 0
516 516 441 472 389 365 337 344 384 400 438 331 384 302 247 257 296 229 196 159 100 16 0 0 0 0 0 0 0 0 0 0 0 0 0 0 0 0 0 0 0 0
462 425 499 459 475 462 427 214 50 239 316 358 248 227 254 231 233 193 169 160 84 11 0 0 0 0 0 0 0 0 0 0 0 0 0 0 0 0 0 0 0 0
290 383 458 414 397 442 389 418 53 120 190 230 174 0 201 176 199 218 122 130 58 21 2 0 0 0 0 0 0 0 0 0 0 0 0 0 0 0 0 0 0 0
361 420 440 430 406 386 416 256 0 0 0 0 107 0 0 68 103 128 50 0 4 6 0 0 0 0 0 0 0 0 0 4 0 0 0 0 0 0 0 0 0 0
448 499 552 505 426 352 0 0 0 95 138 159 103 95 57 102 0 0 1 0 2 4 0 0 0 0 0 0 0 0 0 0 0 0 0 0 0 0 0 0 0 0
489 585 506 474 461 414 330 242 116 163 153 150 100 47 52 35 0 0 7 5 0 0 0 0 0 0 0 0 0 0 0 0 0 0 0 0 0 0 0 0 0 0
493 539 491 472 372 324 293 238 3 23 30 32 41 45 5 0 0 11 4 0 0 0 0 0 0 0 0 0 0 0 0 0 0 0 0 0 0 0 0 0 0 0
376 461 396 317 87 74 61 64 77 83 77 56 39 26 3 0 0 2 0 0 0 0 0 0 0 0 0 0 0 0 0 0 0 0 0 0 0 0 0 0 0 0
292 359 349 323 75 91 78 73 83 83 92 57 4 0 4 0 0 0 0 0 0 0 0 0 0 0 0 0 0 0 0 0 0 0 0 0 0 0 0 0 0 0
346 305 252 257 66 80 85 32 0 19 81 58 0 23 44 18 0 0 0 0 0 0 0 0 0 0 0 0 0 0 0 0 0 0 0 0 0 0 0 0 0 0
484 424 360 293 274 108 62 10 70 162 205 127 27 20 48 30 0 4 0 2 0 0 0 0 0 0 0 0 0 0 0 0 0 0 0 0 0 0 0 0 0 0
466 421 310 276 260 72 70 148 228 226 175 124 44 21 69 43 0 0 2 3 2 0 0 0 0 0 0 0 0 0 0 0 0 0 0 0 0 0 0 0 0 0
Wind_Speed
18 20 21 21 21 20 20 nan nan nan nan nan nan nan nan nan nan nan nan nan nan nan nan nan nan nan nan nan nan nan nan nan nan nan nan nan nan nan nan nan nan nan
19 22 22 22 21 21 nan nan nan nan nan nan nan nan nan nan nan nan nan nan nan nan nan nan nan nan nan nan nan nan nan nan nan nan nan nan nan nan nan nan nan nan
23 24 23 22 21 24 24 nan 22 nan nan nan 23 nan nan nan nan nan nan nan nan nan nan nan nan nan nan nan nan nan nan nan nan nan nan nan nan nan nan nan nan nan
26 26 24 23 23 25 24 24 23 nan nan 23 nan nan nan nan nan nan nan nan nan nan nan nan nan nan nan nan nan nan nan nan nan nan nan nan nan nan nan nan nan nan
27 28 26 25 24 25 24 24 24 23 24 25 25 nan nan nan nan nan nan nan nan nan nan nan nan nan nan nan nan nan nan nan nan nan nan nan nan nan nan nan nan nan
28 28 27 26 25 24 23 24 24 24 25 26 25 nan nan nan nan nan nan nan nan nan nan nan nan nan nan nan nan nan nan nan nan nan nan nan nan nan nan nan nan nan
29 28 27 26 25 24 24 24 23 24 25 25 nan nan nan nan nan nan nan nan nan nan nan nan nan nan nan nan nan nan nan nan nan nan nan nan nan nan nan nan nan nan
27 26 26 25 25 23 24 24 23 24 25 26 nan 26 27 28 28 28 28 nan nan nan nan nan nan nan nan nan nan nan nan nan nan nan nan nan nan nan nan nan nan nan
26 25 25 25 25 24 24 24 25 26 26 27 26 28 28 29 29 28 28 29 nan nan nan nan nan nan nan nan nan nan nan nan nan nan nan nan nan nan nan nan nan nan
26 25 25 25 25 25 25 26 27 27 27 27 29 29 30 30 30 29 29 30 nan nan nan nan nan nan nan nan nan nan nan nan nan nan nan nan nan nan nan nan nan nan
26 25 26 26 26 26 28 29 29 29 28 29 30 31 32 32 31 31 31 31 32 nan nan nan nan nan nan nan nan nan nan nan nan nan nan nan nan nan nan nan nan nan
26 26 26 26 27 29 30 31 31 30 30 30 31 33 33 33 33 32 32 33 34 nan nan nan nan nan nan nan nan nan nan nan nan nan nan nan nan nan nan nan nan nan
26 27 27 27 29 30 31 32 31 30 31 32 32 34 34 34 34 34 34 34 nan nan nan nan nan nan nan nan nan nan nan nan nan nan nan nan nan nan nan nan nan nan
26 26 27 28 29 30 31 32 31 30 31 33 33 34 34 35 35 36 35 36 37 nan nan nan nan nan nan nan nan nan nan nan nan nan nan nan nan nan nan nan nan nan
26 26 26 28 28 29 31 33 32 31 33 33 34 34 34 34 35 36 38 37 38 nan nan nan nan nan nan nan nan nan nan nan nan nan nan nan nan nan nan nan nan nan
28 28 28 28 29 30 32 33 nan 34 33 34 35 36 35 34 35 36 37 38 nan nan nan nan nan nan nan nan nan nan nan nan nan nan nan nan nan nan nan nan nan nan
29 29 29 29 29 31 32 33 nan 33 34 35 36 nan 36 36 37 38 39 40 nan nan nan nan nan nan nan nan nan nan nan nan nan nan nan nan nan nan nan nan nan nan
29 30 30 30 30 32 34 34 nan nan nan nan 38 nan nan nan 41 39 nan nan nan nan nan nan nan nan nan nan nan nan nan nan nan nan nan nan nan nan nan nan nan nan
30 31 31 31 31 34 nan nan nan nan 37 36 38 nan nan 40 nan nan nan nan nan nan nan nan nan nan nan nan nan nan nan nan nan nan nan nan nan nan nan nan nan nan
31 32 32 32 33 33 33 34 34 35 35 36 39 nan nan nan nan nan nan nan nan nan nan nan nan nan nan nan nan nan nan nan nan nan nan nan nan nan nan nan nan nan
31 31 32 32 32 33 33 34 nan nan nan nan nan nan nan nan nan nan nan nan nan nan nan nan nan nan nan nan nan nan nan nan nan nan nan nan nan nan nan nan nan nan
30 32 33 33 nan nan nan nan nan nan nan nan nan nan nan nan nan nan nan nan nan nan nan nan nan nan nan nan nan nan nan nan nan nan nan nan nan nan nan nan nan nan
31 33 34 35 nan nan nan nan nan nan nan nan nan nan nan nan nan nan nan nan nan nan nan nan nan nan nan nan nan nan nan nan nan nan nan nan nan nan nan nan nan nan
33 35 37 38 nan nan nan nan nan nan nan nan nan nan nan nan nan nan nan nan nan nan nan nan nan nan nan nan nan nan nan nan nan nan nan nan nan nan nan nan nan nan
34 35 37 38 38 38 nan nan nan 37 38 38 nan nan nan nan nan nan nan nan nan nan nan nan nan nan nan nan nan nan nan nan nan nan nan nan nan nan nan nan nan nan
36 37 37 38 40 nan nan 40 40 39 40 40 nan nan nan nan nan nan nan nan nan nan nan nan nan nan nan nan nan nan nan nan nan nan nan nan nan nan nan nan nan nan
Wind_Direction
279 274 271 268 268 273 274 nan nan nan nan nan nan nan nan nan nan nan nan nan nan nan nan nan nan nan nan nan nan nan nan nan nan nan nan nan nan nan nan nan nan nan
280 272 267 266 267 268 nan nan nan nan nan nan nan nan nan nan nan nan nan nan nan nan nan nan nan nan nan nan nan nan nan nan nan nan nan nan nan nan nan nan nan nan
272 271 270 271 271 275 272 nan 270 nan nan nan 268 nan nan nan nan nan nan nan nan nan nan nan nan nan nan nan nan nan nan nan nan nan nan nan nan nan nan nan nan nan
270 271 270 268 271 276 273 271 269 nan nan 271 nan nan nan nan nan nan nan nan nan nan nan nan nan nan nan nan nan nan nan nan nan nan nan nan nan nan nan nan nan nan
271 268 265 266 268 270 270 271 273 273 273 271 272 nan nan nan nan nan nan nan nan nan nan nan nan nan nan nan nan nan nan nan nan nan nan nan nan nan nan nan nan nan
267 268 267 266 269 270 270 273 275 275 273 274 275 nan nan nan nan nan nan nan nan nan nan nan nan nan nan nan nan nan nan nan nan nan nan nan nan nan nan nan nan nan
269 266 265 260 266 270 271 273 274 275 274 274 nan nan nan nan nan nan nan nan nan nan nan nan nan nan nan nan nan nan nan nan nan nan nan nan nan nan nan nan nan nan
271 264 261 260 266 270 272 276 277 274 275 277 nan 281 284 284 285 284 285 nan nan nan nan nan nan nan nan nan nan nan nan nan nan nan nan nan nan nan nan nan nan nan
263 261 261 267 271 269 273 277 277 275 276 278 279 280 281 282 283 284 288 290 nan nan nan nan nan nan nan nan nan nan nan nan nan nan nan nan nan nan nan nan nan nan
259 261 267 269 270 269 276 277 276 276 276 278 279 278 280 280 283 286 288 291 nan nan nan nan nan nan nan nan nan nan nan nan nan nan nan nan nan nan nan nan nan nan
265 265 269 272 272 270 275 277 278 277 276 279 279 280 280 281 284 286 289 291 292 nan nan nan nan nan nan nan nan nan nan nan nan nan nan nan nan nan nan nan nan nan
270 269 273 275 273 273 277 278 279 279 280 279 282 283 283 284 286 287 289 292 294 nan nan nan nan nan nan nan nan nan nan nan nan nan nan nan nan nan nan nan nan nan
278 276 275 275 273 274 276 278 280 280 281 282 282 284 285 286 287 289 289 291 nan nan nan nan nan nan nan nan nan nan nan nan nan nan nan nan nan nan nan nan nan nan
282 282 281 278 276 277 277 277 278 279 279 280 281 284 285 286 287 288 288 289 290 nan nan nan nan nan nan nan nan nan nan nan nan nan nan nan nan nan nan nan nan nan
281 281 281 282 283 281 279 277 277 276 277 278 280 280 279 284 286 289 289 288 288 nan nan nan nan nan nan nan nan nan nan nan nan nan nan nan nan nan nan nan nan nan
282 281 284 285 285 284 282 280 nan 277 278 279 281 283 287 288 287 287 288 286 nan nan nan nan nan nan nan nan nan nan nan nan nan nan nan nan nan nan nan nan nan nan
280 282 284 287 286 284 283 285 nan 282 284 282 279 nan 284 284 286 288 286 285 nan nan nan nan nan nan nan nan nan nan nan nan nan nan nan nan nan nan nan nan nan nan
280 284 286 286 285 285 283 282 nan nan nan nan 284 nan nan nan 284 288 nan nan nan nan nan nan nan nan nan nan nan nan nan nan nan nan nan nan nan nan nan nan nan nan
280 283 285 284 284 282 nan nan nan nan 288 288 287 nan nan 284 nan nan nan nan nan nan nan nan nan nan nan nan nan nan nan nan nan nan nan nan nan nan nan nan nan nan
282 283 283 283 283 284 286 287 288 287 285 284 284 nan nan nan nan nan nan nan nan nan nan nan nan nan nan nan nan nan nan nan nan nan nan nan nan nan nan nan nan nan
286 286 286 286 287 289 290 290 nan nan nan nan nan nan nan nan nan nan nan nan nan nan nan nan nan nan nan nan nan nan nan nan nan nan nan nan nan nan nan nan nan nan
289 289 289 290 nan nan nan nan nan nan nan nan nan nan nan nan nan nan nan nan nan nan nan nan nan nan nan nan nan nan nan nan nan nan nan nan nan nan nan nan nan nan
292 294 295 294 nan nan nan nan nan nan nan nan nan nan nan nan nan nan nan nan nan nan nan nan nan nan nan nan nan nan nan nan nan nan nan nan nan nan nan nan nan nan
292 294 295 297 nan nan nan nan nan nan nan nan nan nan nan nan nan nan nan nan nan nan nan nan nan nan nan nan nan nan nan nan nan nan nan nan nan nan nan nan nan nan
292 294 296 298 299 300 nan nan nan 293 291 292 nan nan nan nan nan nan nan nan nan nan nan nan nan nan nan nan nan nan nan nan nan nan nan nan nan nan nan nan nan nan
292 290 288 289 288 nan nan 291 291 290 291 293 nan nan nan nan nan nan nan nan nan nan nan nan nan nan nan nan nan nan nan nan nan nan nan nan nan nan nan nan nan nan